Home   Weather   Sarh   Past weeks

Flag for Chad Past Weather in Sarh, Chad — Yesterday and Last 2 Weeks

Now
97 °F

Sunny.


Feels Like: 100 °F
Forecast: 76 / 104 °F
Wind: 9 mph from South

Location: Sarh Airport

Current Time: Apr 30, 2017 at 10:21:42 am

Latest Report: Apr 30, 2017 at 10:00 am


Visibility: 10 mi

Pressure: 29.89 "Hg

Humidity: 37%

Dew Point: 66 °F

Location of SarhLocation

Past Weather in Sarh — Graph

°F

Sarh Temperature Yesterday

Maximum temperature yesterday: 104 °F (at 3:00 pm)
Minimum temperature yesterday: 81 °F (at 5:00 am)
Average temperature yesterday: 91 °F

High & Low Weather Summary for the Past Weeks

 TemperatureHumidityPressure
High106 °F (Apr 20, 2:00 pm)94% (Apr 17, 5:00 am)30.04 "Hg (Apr 17, 5:00 am)
Low73 °F (Apr 17, 4:00 am)13% (Apr 20, 2:00 pm)29.71 "Hg (Apr 20, 3:00 pm)
Average89 °F50%29.85 "Hg
* Reported Apr 15 9:00 pm — Apr 30 9:00 am, Sarh, Weather by CustomWeather, © 2017

Note: Actual official high and low records may vary slightly from our data, if they occured in-between our weather recording intervals... More about our weather records

Advertising

Sarh Weather History for the Previous 24 Hours

Scroll right to see more
 ConditionsComfort  
Time TempWeatherWind HumidityBarometerVisibility
9:00 am
Sun, Apr 30
95 °FSunny.9 mph39%29.92 "Hg10 mi
8:00 am90 °FSunny.12 mph46%29.92 "Hg10 mi
7:00 am84 °FSunny.7 mph55%29.92 "Hg10 mi
6:00 am82 °FSunny.5 mph55%29.89 "Hg10 mi
2:00 am86 °FClear.5 mph49%29.86 "Hg10 mi
11:00 pm
Sat, Apr 29
90 °FClear.No wind41%29.83 "Hg10 mi
10:00 pm90 °FClear.No wind41%29.80 "Hg10 mi
9:00 pm91 °FClear.No wind52%29.80 "Hg10 mi
8:00 pm91 °FPassing clouds.No wind49%29.80 "HgN/A
7:00 pm95 °FPassing clouds.N/A39%29.80 "HgN/A
6:00 pm97 °FPassing clouds.No wind34%29.74 "HgN/A
5:00 pm100 °FPassing clouds.12 mph29%29.77 "HgN/A
3:00 pm104 °FScattered clouds.12 mph23%29.80 "HgN/A
1:00 pm102 °FPassing clouds.7 mph27%29.89 "HgN/A
12:00 pm99 °FPassing clouds.7 mph31%29.95 "HgN/A
11:00 am99 °FPassing clouds.14 mph37%29.95 "HgN/A
10:00 am95 °FSunny.16 mph41%29.95 "Hg10 mi
Weather by CustomWeather, © 2017

See weather overviewHow to use our weather pages